Location: Unspecified
(0.0000°N, 0.0000°E)
Time: 21:46:24
(UTC+02:00)

IUS-9 SRM-1 - Visible Passes

Search period start: 29 April 2016 00:00
Search period end: 09 May 2016 00:00
Orbit: 251 x 20147 km, 26.5° (Epoch: 28 April)

Date Brightness Start Highest point End Pass type
(mag) Time Alt. Az. Time Alt. Az. Time Alt. Az.
29 Apr 8.0 06:37:57 13° WSW 10:38:43 72° NW 10:58:03 10° NE visible
29 Apr 6.6 23:15:25 10° W 23:27:10 55° S 03:17:34 10° ESE visible
30 Apr 8.3 06:14:38 19° WSW 10:10:21 78° NW 10:32:55 10° NE visible
30 Apr 6.2 22:50:13 10° W 23:00:06 57° SSW 02:16:44 10° ESE visible
01 May 8.6 05:51:13 24° SW 09:40:59 83° NW 10:07:34 10° NE visible
01 May 5.9 22:24:58 10° W 22:33:19 59° SSW 00:31:05 10° ESE visible
02 May 8.9 05:27:46 30° SW 09:10:18 88° NW 09:42:00 10° ENE visible
02 May 5.5 21:59:43 10° W 22:06:48 62° SSW 23:16:10 10° ESE visible
03 May 9.1 05:04:13 35° SW 08:37:59 88° SE 09:16:13 10° ENE visible
03 May 5.1 21:34:25 10° WNW 21:40:27 66° SSW 21:53:44 30° SE visible
04 May 9.1 04:40:36 41° SW 08:03:43 83° SE 08:50:10 10° ENE visible
04 May 4.7 21:09:05 10° WNW 21:14:13 72° SSW 21:29:44 23° SE visible
05 May 9.1 04:16:56 45° SSW 07:27:18 78° SE 08:23:50 10° ENE visible
05 May 4.3 20:43:42 10° WNW 20:48:07 80° SSW 21:05:37 16° ESE visible
06 May 8.3 03:53:10 49° SSW 06:49:00 74° SE 07:57:11 10° ENE visible
06 May 3.9 20:18:15 10° WNW 20:22:06 87° NNE 20:41:20 10° ESE visible
07 May 8.1 03:29:20 52° SSW 06:09:33 69° SE 07:30:07 10° ENE visible
08 May 8.0 02:08:55 10° WSW 05:29:40 63° SE 07:02:38 10° ENE visible
